Date String (YYYY-MM-DD hh:mm:ss) UTC,Instrument flags,Ambient pressure (hPa),Sample flow (lpm),Bypass flow (lpm),Sample temperature (°C),Ambient temperature (°C),ASC tube jacket temperature (°C),LED temperature (°C),Box temperature (°C),Sample RH (%),Span deviation,Mass concentration (μg/m³),Mass concentration (μg/m³),Mass concentration (μg/m³)
DateTimeUTC,F1_M11,P_M11,Q1_M11,Q2_M11,T1_M11,T2_M11,T3_M11,T4_M11,T5_M11,U1_M11,ZSPAN_M11,X0_M11,X2_M11,X1_M11
2022-09-23 01:00:00,,0826.5,4.99,0.00,30.6,29.1,00.0,39.4,32.4,25.9,-001.9,0011.64,0008.06,0007.59
2022-09-23 01:01:00,,0826.5,5.00,0.00,30.6,29.2,00.0,39.4,32.4,25.9,-001.8,0011.76,0008.06,0007.59
2022-09-23 01:02:00,,0826.5,5.01,0.00,30.6,29.2,00.0,39.3,32.4,25.9,-001.8,0011.81,0008.05,0007.58
2022-09-23 01:03:00,,0826.5,5.00,0.00,30.6,29.1,00.0,39.4,32.4,25.9,-001.6,0011.65,0008.07,0007.57
2022-09-23 01:04:00,,0826.5,4.99,0.00,30.6,29.1,00.0,39.4,32.4,26.0,-001.5,0011.75,0008.11,0007.56
2022-09-23 01:05:00,,0826.3,5.01,0.00,30.6,29.2,00.0,39.4,32.4,25.9,-001.7,0011.70,0008.14,0007.56
2022-09-23 01:06:00,,0826.3,4.99,0.00,30.6,29.2,00.0,39.4,32.4,25.9,-001.9,0011.67,0008.15,0007.57
2022-09-23 01:07:00,,0826.4,5.00,0.00,30.6,29.2,00.0,39.4,32.5,25.9,-002.0,0011.56,0008.11,0007.56
2022-09-23 01:08:00,,0826.4,5.01,0.00,30.7,29.2,00.0,39.4,32.5,25.9,-002.2,0012.34,0008.14,0007.57
2022-09-23 01:09:00,,0826.4,4.98,0.00,30.7,29.2,00.0,39.4,32.5,26.0,-002.4,0012.72,0008.16,0007.57
2022-09-23 01:10:00,,0826.3,5.01,0.00,30.7,29.2,00.0,39.4,32.5,26.0,-002.3,0012.59,0008.12,0007.55
2022-09-23 01:11:00,,0826.2,5.00,0.00,30.7,29.2,00.0,39.4,32.5,26.0,-002.4,0012.58,0008.13,0007.53
2022-09-23 01:12:00,,0826.2,4.99,0.00,30.7,29.2,00.0,39.4,32.5,25.9,-002.4,0012.48,0008.13,0007.52
2022-09-23 01:13:00,,0826.4,5.02,0.00,30.7,29.2,00.0,39.4,32.5,25.9,-002.6,0012.42,0008.10,0007.52
2022-09-23 01:14:00,,0826.5,5.00,0.00,30.7,29.2,00.0,39.4,32.5,25.9,-002.6,0012.45,0008.10,0007.51
2022-09-23 01:15:00,,0826.5,5.01,0.00,30.7,29.2,00.0,39.4,32.5,25.9,-002.6,0012.69,0008.10,0007.50
2022-09-23 01:16:00,,0826.4,4.99,0.00,30.7,29.2,00.0,39.4,32.5,26.0,-002.6,0012.80,0008.07,0007.49
2022-09-23 01:17:00,,0826.4,5.01,0.00,30.7,29.2,00.0,39.4,32.5,26.1,-002.6,0012.79,0008.05,0007.47
2022-09-23 01:18:00,,0826.4,4.99,0.00,30.7,29.2,00.0,39.4,32.5,26.0,-002.4,0012.75,0008.03,0007.45
2022-09-23 01:19:00,,0826.4,5.01,0.00,30.7,29.2,00.0,39.4,32.5,26.0,-002.4,0012.22,0007.96,0007.40
2022-09-23 01:20:00,,0826.3,5.01,0.00,30.7,29.2,00.0,39.4,32.5,26.0,-002.2,0011.50,0007.85,0007.34
2022-09-23 01:21:00,,0826.3,5.00,0.00,30.7,29.2,00.0,39.4,32.5,26.0,-002.1,0011.16,0007.80,0007.31
2022-09-23 01:22:00,,0826.3,5.01,0.00,30.7,29.2,00.0,39.4,32.5,25.9,-002.2,0010.98,0007.70,0007.25
2022-09-23 01:23:00,,0826.4,4.99,0.00,30.7,29.2,00.0,39.4,32.5,25.9,-002.3,0010.78,0007.59,0007.18
2022-09-23 01:24:00,,0826.4,5.01,0.00,30.7,29.2,00.0,39.4,32.5,25.9,-002.1,0010.65,0007.50,0007.11
2022-09-23 01:25:00,,0826.4,4.98,0.00,30.7,29.2,00.0,39.4,32.5,25.9,-002.2,0010.45,0007.38,0007.03
2022-09-23 01:26:00,,0826.4,5.01,0.00,30.7,29.2,00.0,39.4,32.5,25.8,-002.3,0010.09,0007.26,0006.96
2022-09-23 01:27:00,,0826.5,5.00,0.00,30.7,29.2,00.0,39.4,32.5,25.9,-002.3,0009.71,0007.17,0006.88
2022-09-23 01:28:00,,0826.4,4.98,0.00,30.7,29.2,00.0,39.4,32.5,25.9,-002.4,0009.63,0007.10,0006.81
2022-09-23 01:29:00,,0826.3,5.01,0.00,30.7,29.2,00.0,39.4,32.5,25.9,-002.8,0009.67,0007.08,0006.77
2022-09-23 01:30:00,,0826.3,5.00,0.00,30.7,29.2,00.0,39.4,32.5,26.0,-002.9,0009.67,0007.05,0006.73
2022-09-23 01:31:00,,0826.4,5.00,0.00,30.7,29.2,00.0,39.4,32.5,26.1,-003.2,0009.57,0006.99,0006.69
2022-09-23 01:32:00,,0826.4,5.00,0.00,30.7,29.2,00.0,39.4,32.5,26.1,-003.4,0009.50,0006.93,0006.63
2022-09-23 01:33:00,,0826.5,5.00,0.00,30.7,29.1,00.0,39.4,32.5,26.1,-003.5,0009.51,0006.91,0006.59
2022-09-23 01:34:00,,0826.5,4.99,0.00,30.7,29.2,00.0,39.4,32.5,26.1,-003.2,0009.51,0006.90,0006.58
2022-09-23 01:35:00,,0826.5,5.00,0.00,30.7,29.2,00.0,39.4,32.5,26.2,-003.0,0009.45,0006.86,0006.56
2022-09-23 01:36:00,,0826.5,5.01,0.00,30.7,29.2,00.0,39.4,32.5,26.1,-002.9,0009.42,0006.85,0006.55
2022-09-23 01:37:00,,0826.5,4.99,0.00,30.7,29.2,00.0,39.4,32.5,26.1,-002.9,0009.41,0006.83,0006.53
2022-09-23 01:38:00,,0826.5,5.01,0.00,30.7,29.1,00.0,39.4,32.5,26.0,-003.1,0009.33,0006.80,0006.53
2022-09-23 01:39:00,,0826.4,5.00,0.00,30.7,29.1,00.0,39.4,32.5,26.1,-003.0,0009.31,0006.80,0006.55
2022-09-23 01:40:00,,0826.5,5.00,0.00,30.7,29.1,00.0,39.4,32.4,26.1,-002.9,0009.25,0006.79,0006.54
2022-09-23 01:41:00,,0826.5,5.01,0.00,30.7,29.2,00.0,39.4,32.5,26.1,-003.4,0009.30,0006.83,0006.58
2022-09-23 01:42:00,,0826.5,4.99,0.00,30.7,29.1,00.0,39.4,32.5,26.2,-003.6,0009.36,0006.86,0006.60
2022-09-23 01:43:00,,0826.5,5.01,0.00,30.7,29.1,00.0,39.4,32.5,26.2,-003.8,0009.44,0006.90,0006.64
2022-09-23 01:44:00,,0826.5,4.99,0.00,30.7,29.1,00.0,39.4,32.5,26.2,-003.7,0009.47,0006.93,0006.68
2022-09-23 01:45:00,,0826.5,5.00,0.00,30.7,29.1,00.0,39.4,32.5,26.1,-003.5,0009.58,0006.96,0006.70
2022-09-23 01:46:00,,0826.5,5.01,0.00,30.7,29.1,00.0,39.4,32.5,26.1,-003.6,0009.68,0007.00,0006.73
2022-09-23 01:47:00,,0826.5,4.99,0.00,30.7,29.1,00.0,39.4,32.5,26.0,-003.5,0009.80,0007.08,0006.80
2022-09-23 01:48:00,,0826.5,5.00,0.00,30.7,29.1,00.0,39.4,32.5,26.1,-003.4,0009.84,0007.10,0006.82
2022-09-23 01:49:00,,0826.5,5.00,0.00,30.7,29.2,00.0,39.4,32.5,26.4,-003.3,0009.83,0007.09,0006.81
2022-09-23 01:50:00,,0826.5,5.00,0.00,30.7,29.2,00.0,39.4,32.5,27.1,-003.1,0009.87,0007.09,0006.82
2022-09-23 01:51:00,,0826.5,5.01,0.00,30.7,29.2,00.0,39.4,32.5,26.4,-003.2,0009.96,0007.10,0006.84
2022-09-23 01:52:00,,0826.5,4.99,0.00,30.7,29.2,00.0,39.4,32.5,26.3,-003.0,0009.92,0007.08,0006.83
2022-09-23 01:53:00,,0826.5,5.01,0.00,30.7,29.2,00.0,39.4,32.5,26.2,-002.7,0009.98,0007.09,0006.83
2022-09-23 01:54:00,,0826.4,4.99,0.00,30.7,29.2,00.0,39.4,32.5,26.0,-002.7,0010.13,0007.19,0006.94
2022-09-23 01:55:00,,0826.3,5.02,0.00,30.7,29.2,00.0,39.4,32.5,25.9,-002.5,0010.29,0007.32,0007.02
2022-09-23 01:56:00,,0826.4,5.00,0.00,30.7,29.2,00.0,39.4,32.5,25.9,-002.8,0010.41,0007.44,0007.13
2022-09-23 01:57:00,,0826.5,5.00,0.00,30.7,29.2,00.0,39.4,32.5,25.9,-002.9,0010.46,0007.51,0007.22
2022-09-23 01:58:00,,0826.6,5.00,0.00,30.7,29.2,00.0,39.5,32.5,25.9,-003.2,0010.62,0007.58,0007.26
2022-09-23 01:59:00,,0826.7,5.00,0.00,30.7,29.2,00.0,39.5,32.5,26.0,-003.4,0010.77,0007.65,0007.33
